| time (UTC) | temp C | wind direction | speed KPH | gust KPH | rain 1hr cm | rain 24hr cm | rain mn cm | humidity % | barometer mb |
| 20260505180816 | 24 | 221 | 14.5 | 22.5 | 0.00 | 0.10 | 0.10 | 76 | 1005.5 |
| 20260505180312 | 24 | 217 | 16.1 | 17.7 | 0.00 | 0.10 | 0.10 | 76 | 1005.4 |
| 20260505175809 | 24 | 217 | 9.7 | 17.7 | 0.00 | 0.10 | 0.10 | 76 | 1005.5 |
| 20260505175306 | 23 | 213 | 11.3 | 22.5 | 0.00 | 0.10 | 0.10 | 76 | 1005.6 |
| 20260505174802 | 24 | 223 | 8.0 | 22.5 | 0.00 | 0.10 | 0.10 | 75 | 1005.8 |
| 20260505174259 | 24 | 206 | 12.9 | 22.5 | 0.00 | 0.10 | 0.10 | 75 | 1005.7 |
| 20260505173755 | 25 | 210 | 12.9 | 24.1 | 0.00 | 0.10 | 0.10 | 75 | 1005.8 |
| 20260505173252 | 25 | 214 | 17.7 | 22.5 | 0.00 | 0.10 | 0.10 | 73 | 1005.5 |
| 20260505172749 | 25 | 226 | 11.3 | 20.9 | 0.00 | 0.10 | 0.10 | 74 | 1005.7 |
| 20260505172246 | 25 | 212 | 11.3 | 17.7 | 0.00 | 0.10 | 0.10 | 73 | 1005.8 |
| 20260505171746 | 25 | 223 | 6.4 | 11.3 | 0.00 | 0.10 | 0.10 | 72 | 1005.7 |
| 20260505171243 | 25 | 188 | 4.8 | 19.3 | 0.00 | 0.10 | 0.10 | 75 | 1005.8 |
| 20260505170740 | 25 | 234 | 11.3 | 17.7 | 0.00 | 0.10 | 0.10 | 74 | 1006.0 |
| 20260505170237 | 25 | 220 | 3.2 | 9.7 | 0.00 | 0.10 | 0.10 | 75 | 1005.8 |
| 20260505165732 | 25 | 216 | 12.9 | 16.1 | 0.00 | 0.10 | 0.10 | 75 | 1005.8 |
| 20260505165228 | 25 | 211 | 9.7 | 17.7 | 0.00 | 0.10 | 0.10 | 73 | 1005.6 |
| 20260505164724 | 25 | 216 | 6.4 | 11.3 | 0.00 | 0.10 | 0.10 | 76 | 1005.8 |
| 20260505164221 | 25 | 185 | 3.2 | 8.0 | 0.00 | 0.10 | 0.10 | 75 | 1005.9 |
| 20260505163719 | 25 | 234 | 4.8 | 8.0 | 0.00 | 0.10 | 0.10 | 77 | 1005.9 |
| 20260505163218 | 25 | 186 | 0.0 | 9.7 | 0.00 | 0.10 | 0.10 | 77 | 1006.0 |
| 20260505162714 | 24 | 225 | 3.2 | 8.0 | 0.00 | 0.10 | 0.10 | 80 | 1006.2 |
| 20260505162212 | 23 | 228 | 4.8 | 8.0 | 0.00 | 0.10 | 0.10 | 84 | 1006.2 |
| 20260505161708 | 23 | 243 | 4.8 | 8.0 | 0.00 | 0.10 | 0.10 | 83 | 1006.4 |
| 20260505161206 | 23 | 93 | 1.6 | 3.2 | 0.00 | 0.10 | 0.10 | 81 | 1006.4 |
| 20260505160703 | 23 | 112 | 1.6 | 4.8 | 0.00 | 0.10 | 0.10 | 82 | 1006.2 |
| 20260505160201 | 22 | 221 | 1.6 | 3.2 | 0.00 | 0.10 | 0.10 | 87 | 1006.4 |
| 20260505153140 | 21 | 39 | 6.4 | 9.7 | 0.00 | 0.10 | 0.10 | 91 | 1006.6 |
| 20260505152637 | 20 | 84 | 3.2 | 8.0 | 0.00 | 0.10 | 0.10 | 92 | 1006.8 |
| 20260505152132 | 20 | 33 | 6.4 | 9.7 | 0.00 | 0.10 | 0.10 | 92 | 1006.7 |
| 20260505151628 | 20 | 70 | 6.4 | 6.4 | 0.00 | 0.10 | 0.10 | 91 | 1006.8 |
| 20260505151126 | 20 | 9 | 8.0 | 9.7 | 0.00 | 0.10 | 0.10 | 91 | 1006.8 |
| 20260505150621 | 20 | 16 | 6.4 | 8.0 | 0.00 | 0.10 | 0.10 | 92 | 1006.8 |
| 20260505150119 | 20 | 56 | 4.8 | 9.7 | 0.00 | 0.10 | 0.10 | 92 | 1006.9 |
| 20260505140547 | 17 | 88 | 3.2 | 9.7 | 0.00 | 0.10 | 0.10 | 98 | 1007.1 |
| 20260505125000 | 17 | 113 | 4.8 | 8.0 | 0.13 | 0.08 | 0.08 | 96 | 1007.3 |
| 20260505124457 | 17 | 120 | 3.2 | 4.8 | 0.13 | 0.08 | 0.08 | 96 | 1007.3 |
| 20260505123953 | 17 | 125 | 4.8 | 8.0 | 0.05 | 0.05 | 0.05 | 95 | 1007.2 |
| 20260505123450 | 17 | 108 | 9.7 | 11.3 | 0.05 | 0.05 | 0.05 | 94 | 1007.1 |
| 20260505122946 | 17 | 84 | 3.2 | 8.0 | 0.05 | 0.05 | 0.05 | 93 | 1007.2 |
| 20260505122443 | 17 | 68 | 6.4 | 9.7 | 0.00 | 0.03 | 0.03 | 92 | 1007.0 |
| 20260505121940 | 17 | 116 | 9.7 | 12.9 | 0.00 | 0.03 | 0.03 | 89 | 1006.6 |
| 20260505121437 | 17 | 116 | 9.7 | 12.9 | 0.00 | 0.03 | 0.03 | 89 | 1006.6 |
| 20260505120933 | 18 | 47 | 6.4 | 14.5 | 0.00 | 0.03 | 0.03 | 87 | 1006.8 |
| 20260505120430 | 18 | 67 | 6.4 | 8.0 | 0.00 | 0.03 | 0.03 | 86 | 1006.6 |
| 20260505115854 | 18 | 65 | 8.0 | 11.3 | 0.00 | 0.03 | 0.03 | 85 | 1006.5 |
| 20260505115351 | 18 | 65 | 8.0 | 11.3 | 0.00 | 0.03 | 0.03 | 85 | 1006.5 |
| 20260505114849 | 18 | 57 | 1.6 | 9.7 | 0.00 | 0.03 | 0.03 | 85 | 1006.3 |
| 20260505114345 | 18 | 101 | 4.8 | 8.0 | 0.00 | 0.03 | 0.03 | 84 | 1006.2 |
| 20260505113841 | 18 | 112 | 6.4 | 11.3 | 0.00 | 0.03 | 0.03 | 84 | 1006.3 |
| 20260505113338 | 18 | 96 | 6.4 | 9.7 | 0.00 | 0.03 | 0.03 | 83 | 1006.2 |
| 20260505112834 | 18 | 106 | 9.7 | 9.7 | 0.00 | 0.03 | 0.03 | 83 | 1006.1 |
| 20260505112332 | 18 | 108 | 8.0 | 11.3 | 0.00 | 0.03 | 0.03 | 83 | 1006.0 |
| 20260505111827 | 18 | 108 | 11.3 | 11.3 | 0.00 | 0.03 | 0.03 | 82 | 1006.0 |
| 20260505111323 | 18 | 109 | 3.2 | 9.7 | 0.00 | 0.03 | 0.03 | 83 | 1006.1 |
| 20260505110819 | 18 | 153 | 3.2 | 9.7 | 0.00 | 0.03 | 0.03 | 83 | 1006.0 |
| 20260505110317 | 18 | 112 | 4.8 | 6.4 | 0.00 | 0.03 | 0.03 | 83 | 1005.7 |
| 20260505101751 | 18 | 161 | 1.6 | 4.8 | 0.00 | 0.03 | 0.03 | 84 | 1005.9 |
| 20260505101246 | 18 | 66 | 1.6 | 4.8 | 0.00 | 0.03 | 0.03 | 84 | 1006.0 |
| 20260505100743 | 18 | 133 | 6.4 | 6.4 | 0.00 | 0.03 | 0.03 | 85 | 1005.8 |
| 20260505100240 | 18 | 26 | 4.8 | 9.7 | 0.00 | 0.03 | 0.03 | 85 | 1006.1 |
| 20260505095735 | 18 | 135 | 0.0 | 3.2 | 0.00 | 0.03 | 0.03 | 87 | 1006.0 |
| 20260505095234 | 18 | 262 | 0.0 | 1.6 | 0.00 | 0.03 | 0.03 | 88 | 1005.9 |
| 20260505094729 | 18 | 354 | 0.0 | 1.6 | 0.00 | 0.03 | 0.03 | 88 | 1005.6 |
| 20260505094225 | 18 | 269 | 0.0 | 3.2 | 0.00 | 0.03 | 0.03 | 87 | 1005.7 |
| 20260505093722 | 19 | 102 | 3.2 | 4.8 | 0.00 | 0.03 | 0.03 | 82 | 1005.2 |
| 20260505093219 | 19 | 115 | 4.8 | 4.8 | 0.00 | 0.03 | 0.03 | 80 | 1005.2 |
| 20260505092716 | 19 | 110 | 0.0 | 0.0 | 0.00 | 0.03 | 0.03 | 77 | 1004.9 |
| 20260505092215 | 19 | 110 | 0.0 | 0.0 | 0.00 | 0.03 | 0.03 | 77 | 1004.8 |
| 20260505091711 | 19 | 145 | 1.6 | 3.2 | 0.00 | 0.03 | 0.03 | 78 | 1004.9 |
| 20260505091209 | 18 | 357 | 3.2 | 3.2 | 0.00 | 0.03 | 0.03 | 78 | 1004.8 |
| 20260505090707 | 19 | 189 | 3.2 | 4.8 | 0.00 | 0.03 | 0.03 | 78 | 1004.6 |
| 20260505090205 | 19 | 162 | 3.2 | 4.8 | 0.00 | 0.03 | 0.03 | 75 | 1004.6 |
| 20260505085702 | 19 | 117 | 3.2 | 3.2 | 0.00 | 0.03 | 0.03 | 75 | 1004.6 |
| 20260505085200 | 20 | 81 | 4.8 | 8.0 | 0.00 | 0.03 | 0.03 | 74 | 1004.6 |
| 20260505084657 | 20 | 86 | 3.2 | 11.3 | 0.00 | 0.03 | 0.03 | 74 | 1004.6 |
| 20260505084156 | 20 | 73 | 3.2 | 6.4 | 0.00 | 0.03 | 0.03 | 75 | 1004.8 |
| 20260505083653 | 19 | 104 | 4.8 | 6.4 | 0.00 | 0.03 | 0.03 | 75 | 1004.9 |
| 20260505083149 | 19 | 49 | 3.2 | 6.4 | 0.00 | 0.03 | 0.03 | 75 | 1004.9 |
| 20260505082645 | 19 | 92 | 3.2 | 14.5 | 0.00 | 0.03 | 0.03 | 77 | 1004.7 |
| 20260505082142 | 18 | 83 | 6.4 | 8.0 | 0.05 | 0.03 | 0.03 | 80 | 1004.8 |
| 20260505081638 | 18 | 118 | 1.6 | 4.8 | 0.05 | 0.03 | 0.03 | 82 | 1004.6 |
| 20260505081136 | 18 | 132 | 3.2 | 6.4 | 0.00 | 0.03 | 0.03 | 82 | 1005.0 |
| 20260505080632 | 18 | 124 | 4.8 | 6.4 | 0.13 | 0.03 | 0.03 | 81 | 1005.6 |
| 20260505080128 | 18 | 42 | 1.6 | 3.2 | 0.13 | 0.03 | 0.03 | 79 | 1005.7 |
| 20260505075625 | 18 | 17 | 1.6 | 3.2 | 0.05 | 0.00 | 0.00 | 75 | 1005.9 |
| 20260505075122 | 18 | 162 | 1.6 | 4.8 | 0.00 | 0.00 | 0.00 | 74 | 1005.6 |
| 20260505074618 | 18 | 157 | 3.2 | 4.8 | 0.00 | 0.00 | 0.00 | 76 | 1005.8 |
| 20260505074116 | 18 | 149 | 3.2 | 4.8 | 0.00 | 0.00 | 0.00 | 78 | 1005.8 |
| 20260505073614 | 18 | 201 | 1.6 | 3.2 | 0.00 | 0.00 | 0.00 | 78 | 1005.9 |
| 20260505073112 | 18 | 92 | 6.4 | 8.0 | 0.00 | 0.00 | 0.00 | 76 | 1005.9 |
| 20260505072607 | 18 | 95 | 3.2 | 4.8 | 0.00 | 0.00 | 0.00 | 80 | 1006.1 |
| 20260505072103 | 17 | 180 | 0.0 | 4.8 | 0.00 | 0.00 | 0.00 | 81 | 1006.0 |
| 20260505071559 | 17 | 107 | 1.6 | 6.4 | 0.00 | 0.00 | 0.00 | 82 | 1006.1 |
| 20260505071057 | 17 | 199 | 1.6 | 3.2 | 0.00 | 0.00 | 0.00 | 83 | 1006.2 |
| 20260505070554 | 17 | 111 | 3.2 | 3.2 | 0.00 | 0.00 | 0.00 | 83 | 1006.2 |
| 20260505070050 | 17 | 103 | 0.0 | 1.6 | 0.00 | 0.00 | 0.00 | 83 | 1006.1 |
| 20260505065546 | 17 | 88 | 3.2 | 3.2 | 0.00 | 0.00 | 0.00 | 82 | 1006.3 |
| 20260505065043 | 17 | 138 | 0.0 | 1.6 | 0.00 | 0.00 | 0.00 | 81 | 1006.3 |
| 20260505064540 | 17 | 89 | 0.0 | 3.2 | 0.00 | 0.00 | 0.00 | 78 | 1006.3 |
| 20260505064038 | 17 | 98 | 0.0 | 4.8 | 0.00 | 0.00 | 0.00 | 79 | 1006.5 |
| 20260505063535 | 17 | 125 | 4.8 | 6.4 | 0.00 | 0.00 | 0.00 | 80 | 1006.6 |
| 20260505063031 | 17 | 135 | 3.2 | 3.2 | 0.00 | 0.00 | 0.00 | 82 | 1007.0 |
| 20260505062528 | 17 | 139 | 0.0 | 1.6 | 0.00 | 0.00 | 0.00 | 82 | 1007.4 |
| 20260505062025 | 17 | 103 | 0.0 | 3.2 | 0.00 | 0.00 | 0.00 | 81 | 1007.5 |
| 20260505061523 | 17 | 168 | 1.6 | 3.2 | 0.00 | 0.00 | 0.00 | 81 | 1007.7 |
| 20260505061020 | 18 | 157 | 1.6 | 3.2 | 0.00 | 0.00 | 0.00 | 79 | 1007.8 |
| 20260505060518 | 18 | 187 | 3.2 | 4.8 | 0.00 | 0.00 | 0.00 | 80 | 1008.3 |
| 20260505060014 | 18 | 198 | 1.6 | 3.2 | 0.00 | 0.00 | 0.00 | 77 | 1008.4 |
| 20260505055509 | 18 | 356 | 0.0 | 4.8 | 0.00 | 0.00 | 0.00 | 77 | 1008.1 |
| 20260505055006 | 17 | 11 | 3.2 | 3.2 | 0.00 | 0.00 | 0.00 | 77 | 1007.9 |
| 20260505054504 | 17 | 173 | 0.0 | 4.8 | 0.00 | 0.00 | 0.00 | 78 | 1007.6 |
| 20260505054002 | 17 | 114 | 3.2 | 3.2 | 0.00 | 0.00 | 0.00 | 78 | 1007.5 |
| 20260505053458 | 18 | 202 | 0.0 | 3.2 | 0.00 | 0.00 | 0.00 | 77 | 1007.7 |
| 20260505052955 | 18 | 72 | 3.2 | 3.2 | 0.00 | 0.00 | 0.00 | 76 | 1007.6 |
| 20260505052452 | 18 | 66 | 0.0 | 4.8 | 0.00 | 0.00 | 0.00 | 74 | 1007.5 |
| 20260505051949 | 18 | 160 | 3.2 | 4.8 | 0.00 | 0.00 | 0.00 | 73 | 1007.5 |
| 20260505051446 | 18 | 115 | 3.2 | 6.4 | 0.00 | 0.00 | 0.00 | 73 | 1007.5 |
| 20260505050944 | 18 | 102 | 3.2 | 4.8 | 0.00 | 0.00 | 0.00 | 73 | 1007.5 |
| 20260505050443 | 18 | 113 | 0.0 | 3.2 | 0.00 | 0.00 | 0.00 | 73 | 1007.5 |
| 20260505041410 | 19 | 146 | 0.0 | 3.2 | 0.00 | 0.00 | 0.00 | 71 | 1008.1 |
| 20260505040907 | 19 | 142 | 0.0 | 1.6 | 0.00 | 0.00 | 0.00 | 70 | 1008.1 |
| 20260505040405 | 20 | 129 | 0.0 | 4.8 | 0.00 | 0.00 | 0.00 | 69 | 1008.2 |
| 20260505035901 | 19 | 236 | 1.6 | 6.4 | 0.00 | 0.00 | 0.00 | 71 | 1008.3 |
| 20260505035357 | 20 | 70 | 1.6 | 4.8 | 0.00 | 0.00 | 0.00 | 70 | 1008.3 |
| 20260505034855 | 18 | 197 | 4.8 | 4.8 | 0.00 | 0.00 | 0.00 | 73 | 1008.3 |
| 20260505034351 | 18 | 212 | 0.0 | 3.2 | 0.00 | 0.00 | 0.00 | 72 | 1008.3 |
| 20260505033848 | 19 | 185 | 1.6 | 3.2 | 0.00 | 0.00 | 0.00 | 71 | 1008.4 |
| 20260505033345 | 20 | 181 | 0.0 | 3.2 | 0.00 | 0.00 | 0.00 | 70 | 1008.6 |
| 20260505032843 | 20 | 158 | 3.2 | 3.2 | 0.00 | 0.00 | 0.00 | 69 | 1008.5 |
| 20260505032339 | 19 | 135 | 1.6 | 3.2 | 0.00 | 0.00 | 0.00 | 70 | 1008.6 |
| 20260505031836 | 19 | 173 | 0.0 | 3.2 | 0.00 | 0.00 | 0.00 | 71 | 1008.5 |
| 20260505031333 | 20 | 194 | 0.0 | 1.6 | 0.00 | 0.00 | 0.00 | 70 | 1008.6 |
| 20260505030830 | 19 | 177 | 1.6 | 3.2 | 0.00 | 0.00 | 0.00 | 71 | 1008.5 |
| 20260505030326 | 20 | 163 | 1.6 | 3.2 | 0.00 | 0.00 | 0.00 | 69 | 1008.7 |
| 20260505025822 | 18 | 161 | 0.0 | 6.4 | 0.00 | 0.00 | 0.00 | 71 | 1008.6 |
| 20260505025320 | 19 | 186 | 0.0 | 3.2 | 0.00 | 0.00 | 0.00 | 73 | 1008.7 |
| 20260505024818 | 20 | 152 | 3.2 | 4.8 | 0.00 | 0.00 | 0.00 | 72 | 1008.7 |
| 20260505024315 | 20 | 147 | 3.2 | 4.8 | 0.00 | 0.00 | 0.00 | 71 | 1008.7 |
| 20260505023812 | 20 | 212 | 1.6 | 3.2 | 0.00 | 0.00 | 0.00 | 70 | 1008.6 |
| 20260505023309 | 20 | 185 | 0.0 | 4.8 | 0.00 | 0.00 | 0.00 | 68 | 1008.4 |
| 20260505022807 | 20 | 160 | 3.2 | 3.2 | 0.00 | 0.00 | 0.00 | 70 | 1008.3 |
| 20260505022304 | 20 | 212 | 0.0 | 3.2 | 0.00 | 0.00 | 0.00 | 69 | 1008.2 |
| 20260505021800 | 20 | 154 | 1.6 | 3.2 | 0.00 | 0.00 | 0.00 | 67 | 1008.2 |
| 20260505021257 | 20 | 180 | 0.0 | 3.2 | 0.00 | 0.00 | 0.00 | 70 | 1008.1 |
| 20260505020753 | 20 | 168 | 0.0 | 3.2 | 0.00 | 0.00 | 0.00 | 67 | 1008.1 |
| 20260505020248 | 20 | 212 | 0.0 | 3.2 | 0.00 | 0.00 | 0.00 | 67 | 1007.7 |
| 20260505015746 | 21 | 141 | 1.6 | 4.8 | 0.00 | 0.00 | 0.00 | 66 | 1007.9 |
| 20260505015242 | 20 | 89 | 0.0 | 0.0 | 0.00 | 0.00 | 0.00 | 65 | 1007.7 |
| 20260505014740 | 21 | 168 | 0.0 | 3.2 | 0.00 | 0.00 | 0.00 | 65 | 1007.6 |
| 20260505014237 | 21 | 15 | 0.0 | 1.6 | 0.00 | 0.00 | 0.00 | 64 | 1007.6 |
| 20260505013733 | 21 | 200 | 1.6 | 3.2 | 0.00 | 0.00 | 0.00 | 66 | 1007.5 |
| 20260505013231 | 21 | 141 | 0.0 | 3.2 | 0.00 | 0.00 | 0.00 | 63 | 1007.6 |
| 20260505012729 | 21 | 187 | 3.2 | 6.4 | 0.00 | 0.00 | 0.00 | 62 | 1007.4 |
| 20260505012226 | 21 | 24 | 1.6 | 4.8 | 0.00 | 0.00 | 0.00 | 63 | 1007.6 |
| 20260505011721 | 21 | 216 | 3.2 | 3.2 | 0.00 | 0.00 | 0.00 | 63 | 1007.4 |
| 20260505011219 | 22 | 222 | 3.2 | 4.8 | 0.00 | 0.00 | 0.00 | 62 | 1007.4 |
| 20260505010714 | 22 | 81 | 8.0 | 8.0 | 0.00 | 0.00 | 0.00 | 60 | 1007.5 |
| 20260505010211 | 22 | 162 | 3.2 | 6.4 | 0.00 | 0.00 | 0.00 | 60 | 1007.5 |
| 20260505005707 | 22 | 228 | 3.2 | 3.2 | 0.00 | 0.00 | 0.00 | 60 | 1007.2 |
| 20260505005205 | 22 | 180 | 1.6 | 4.8 | 0.00 | 0.00 | 0.00 | 59 | 1007.2 |
| 20260505004702 | 22 | 207 | 4.8 | 8.0 | 0.00 | 0.00 | 0.00 | 58 | 1007.3 |
| 20260505004158 | 22 | 178 | 3.2 | 4.8 | 0.00 | 0.00 | 0.00 | 60 | 1007.3 |
| 20260505003655 | 23 | 199 | 6.4 | 8.0 | 0.00 | 0.00 | 0.00 | 59 | 1007.1 |
| 20260505003153 | 23 | 235 | 3.2 | 8.0 | 0.00 | 0.00 | 0.00 | 57 | 1007.3 |
| 20260505002649 | 23 | 201 | 3.2 | 9.7 | 0.00 | 0.00 | 0.00 | 58 | 1007.2 |
| 20260505002147 | 23 | 176 | 1.6 | 4.8 | 0.00 | 0.00 | 0.00 | 57 | 1007.2 |
| 20260505001644 | 23 | 192 | 4.8 | 4.8 | 0.00 | 0.00 | 0.00 | 58 | 1007.3 |
| 20260505001141 | 23 | 208 | 3.2 | 6.4 | 0.00 | 0.00 | 0.00 | 57 | 1007.5 |
| 20260505000638 | 24 | 200 | 3.2 | 4.8 | 0.00 | 0.00 | 0.00 | 57 | 1007.4 |
| 20260505000137 | 24 | 204 | 1.6 | 6.4 | 0.00 | 0.00 | 0.00 | 57 | 1007.4 |
| 20260504235632 | 24 | 188 | 3.2 | 4.8 | 0.00 | 0.00 | 0.00 | 58 | 1007.4 |
| 20260504235129 | 24 | 202 | 0.0 | 3.2 | 0.00 | 0.00 | 0.00 | 57 | 1007.4 |
| 20260504234626 | 24 | 161 | 0.0 | 1.6 | 0.00 | 0.00 | 0.00 | 56 | 1007.4 |
| 20260504234123 | 24 | 216 | 9.7 | 14.5 | 0.00 | 0.00 | 0.00 | 54 | 1007.3 |
| 20260504233619 | 24 | 220 | 0.0 | 4.8 | 0.00 | 0.00 | 0.00 | 53 | 1007.3 |
| 20260504233115 | 24 | 172 | 3.2 | 4.8 | 0.00 | 0.00 | 0.00 | 57 | 1007.4 |
| 20260504232613 | 25 | 136 | 1.6 | 6.4 | 0.00 | 0.00 | 0.00 | 55 | 1007.2 |
| 20260504232110 | 25 | 210 | 4.8 | 9.7 | 0.00 | 0.00 | 0.00 | 53 | 1007.4 |
| 20260504231606 | 25 | 200 | 6.4 | 16.1 | 0.00 | 0.00 | 0.00 | 54 | 1007.4 |
| 20260504231102 | 25 | 222 | 6.4 | 6.4 | 0.00 | 0.00 | 0.00 | 53 | 1007.4 |
| 20260504230558 | 25 | 204 | 1.6 | 3.2 | 0.00 | 0.00 | 0.00 | 54 | 1007.5 |
| 20260504230058 | 25 | 200 | 3.2 | 14.5 | 0.00 | 0.00 | 0.00 | 53 | 1007.5 |
| 20260504225555 | 25 | 213 | 1.6 | 6.4 | 0.00 | 0.00 | 0.00 | 54 | 1007.7 |
| 20260504225052 | 25 | 203 | 4.8 | 11.3 | 0.00 | 0.00 | 0.00 | 52 | 1007.8 |
| 20260504224548 | 25 | 190 | 4.8 | 17.7 | 0.00 | 0.00 | 0.00 | 51 | 1007.5 |
| 20260504224046 | 25 | 203 | 3.2 | 9.7 | 0.00 | 0.00 | 0.00 | 53 | 1007.6 |
| 20260504223543 | 26 | 204 | 3.2 | 6.4 | 0.00 | 0.00 | 0.00 | 53 | 1007.6 |
| 20260504223038 | 25 | 196 | 3.2 | 9.7 | 0.00 | 0.00 | 0.00 | 52 | 1007.7 |
| 20260504222535 | 26 | 174 | 6.4 | 8.0 | 0.00 | 0.00 | 0.00 | 51 | 1007.7 |
| 20260504222033 | 26 | 206 | 4.8 | 8.0 | 0.00 | 0.00 | 0.00 | 53 | 1007.7 |
| 20260504221530 | 26 | 209 | 6.4 | 12.9 | 0.00 | 0.00 | 0.00 | 50 | 1007.9 |
| 20260504221026 | 26 | 220 | 9.7 | 14.5 | 0.00 | 0.00 | 0.00 | 51 | 1007.9 |
| 20260504220523 | 26 | 203 | 8.0 | 11.3 | 0.00 | 0.00 | 0.00 | 50 | 1007.7 |
| 20260504220020 | 26 | 213 | 8.0 | 14.5 | 0.00 | 0.00 | 0.00 | 50 | 1007.8 |
| 20260504215516 | 26 | 187 | 3.2 | 20.9 | 0.00 | 0.00 | 0.00 | 50 | 1008.0 |
| 20260504215014 | 26 | 216 | 12.9 | 16.1 | 0.00 | 0.00 | 0.00 | 49 | 1007.9 |
| 20260504214510 | 27 | 209 | 4.8 | 11.3 | 0.00 | 0.00 | 0.00 | 50 | 1008.1 |
| 20260504214006 | 26 | 199 | 8.0 | 14.5 | 0.00 | 0.00 | 0.00 | 49 | 1008.1 |
| 20260504213502 | 26 | 215 | 11.3 | 17.7 | 0.00 | 0.00 | 0.00 | 49 | 1008.1 |
| 20260504213000 | 26 | 209 | 14.5 | 17.7 | 0.00 | 0.00 | 0.00 | 48 | 1008.2 |
| 20260504212456 | 26 | 197 | 4.8 | 20.9 | 0.00 | 0.00 | 0.00 | 48 | 1008.3 |
| 20260504211953 | 26 | 213 | 8.0 | 19.3 | 0.00 | 0.00 | 0.00 | 49 | 1008.5 |
| 20260504211450 | 26 | 191 | 4.8 | 25.7 | 0.00 | 0.00 | 0.00 | 51 | 1008.5 |
| 20260504210947 | 26 | 213 | 11.3 | 27.4 | 0.00 | 0.00 | 0.00 | 49 | 1008.3 |
| 20260504210444 | 27 | 192 | 4.8 | 16.1 | 0.00 | 0.00 | 0.00 | 49 | 1008.6 |
| 20260504205941 | 27 | 220 | 12.9 | 19.3 | 0.00 | 0.00 | 0.00 | 47 | 1008.4 |
| 20260504205438 | 26 | 212 | 8.0 | 20.9 | 0.00 | 0.00 | 0.00 | 48 | 1008.7 |
| 20260504204937 | 26 | 216 | 14.5 | 19.3 | 0.00 | 0.00 | 0.00 | 47 | 1008.8 |
| 20260504204434 | 26 | 206 | 6.4 | 24.1 | 0.00 | 0.00 | 0.00 | 47 | 1008.8 |
| 20260504203934 | 27 | 211 | 6.4 | 20.9 | 0.00 | 0.00 | 0.00 | 47 | 1008.9 |
| 20260504203431 | 27 | 221 | 17.7 | 24.1 | 0.00 | 0.00 | 0.00 | 49 | 1009.2 |
| 20260504202927 | 27 | 212 | 14.5 | 17.7 | 0.00 | 0.00 | 0.00 | 49 | 1009.2 |
| 20260504202423 | 26 | 236 | 12.9 | 24.1 | 0.00 | 0.00 | 0.00 | 48 | 1009.2 |
| 20260504201920 | 26 | 225 | 17.7 | 27.4 | 0.00 | 0.00 | 0.00 | 48 | 1009.3 |
| 20260504201418 | 27 | 222 | 20.9 | 24.1 | 0.00 | 0.00 | 0.00 | 46 | 1009.1 |
| 20260504200915 | 27 | 215 | 25.7 | 29.0 | 0.00 | 0.00 | 0.00 | 47 | 1009.3 |
| 20260504200411 | 27 | 170 | 3.2 | 17.7 | 0.00 | 0.00 | 0.00 | 47 | 1009.4 |
| 20260504195908 | 27 | 219 | 20.9 | 24.1 | 0.00 | 0.00 | 0.00 | 46 | 1009.6 |
| 20260504195404 | 26 | 217 | 11.3 | 24.1 | 0.00 | 0.00 | 0.00 | 49 | 1009.7 |
| 20260504194901 | 27 | 213 | 16.1 | 27.4 | 0.00 | 0.00 | 0.00 | 48 | 1009.7 |
| 20260504194356 | 27 | 187 | 4.8 | 16.1 | 0.00 | 0.00 | 0.00 | 48 | 1009.7 |
| 20260504193852 | 27 | 226 | 16.1 | 27.4 | 0.00 | 0.00 | 0.00 | 45 | 1010.0 |
| 20260504193349 | 26 | 207 | 17.7 | 33.8 | 0.00 | 0.00 | 0.00 | 48 | 1010.2 |
| 20260504192849 | 26 | 218 | 17.7 | 29.0 | 0.00 | 0.00 | 0.00 | 47 | 1010.2 |
| 20260504192346 | 27 | 228 | 11.3 | 27.4 | 0.00 | 0.00 | 0.00 | 49 | 1010.1 |
| 20260504191844 | 26 | 231 | 6.4 | 29.0 | 0.00 | 0.00 | 0.00 | 49 | 1010.1 |
| 20260504191342 | 27 | 219 | 19.3 | 25.7 | 0.00 | 0.00 | 0.00 | 46 | 1010.1 |
| 20260504190837 | 27 | 217 | 6.4 | 19.3 | 0.00 | 0.00 | 0.00 | 49 | 1010.3 |
| 20260504190333 | 26 | 205 | 9.7 | 20.9 | 0.00 | 0.00 | 0.00 | 48 | 1010.4 |
| 20260504185830 | 27 | 202 | 6.4 | 11.3 | 0.00 | 0.00 | 0.00 | 49 | 1010.3 |
| 20260504185327 | 26 | 228 | 9.7 | 17.7 | 0.00 | 0.00 | 0.00 | 48 | 1010.4 |
| 20260504184823 | 26 | 212 | 14.5 | 17.7 | 0.00 | 0.00 | 0.00 | 48 | 1010.6 |
| 20260504184319 | 26 | 207 | 11.3 | 20.9 | 0.00 | 0.00 | 0.00 | 51 | 1010.6 |
| 20260504183815 | 26 | 233 | 14.5 | 25.7 | 0.00 | 0.00 | 0.00 | 49 | 1010.6 |
| 20260504183312 | 26 | 212 | 14.5 | 22.5 | 0.00 | 0.00 | 0.00 | 47 | 1010.8 |
| 20260504182810 | 26 | 207 | 14.5 | 17.7 | 0.00 | 0.00 | 0.00 | 47 | 1010.7 |
| 20260504182307 | 26 | 210 | 12.9 | 24.1 | 0.00 | 0.00 | 0.00 | 47 | 1010.7 |
| 20260504181804 | 26 | 233 | 12.9 | 27.4 | 0.00 | 0.00 | 0.00 | 48 | 1010.9 |
| 20260504181301 | 26 | 238 | 11.3 | 20.9 | 0.00 | 0.00 | 0.00 | 50 | 1010.9 |